N493MM KSHV-KRSN

Flight info

Callsign N493MM
Flight time 0h 20m
Altitude 7000
Route /
Aircraft TBM9/L-VGDW/C

Departure

Time 2026-05-07 02:26
Airport Shreveport Regional Airport (KSHV)

Arrival

Time 2026-05-07 02:47
Airport Ruston Regional Airport (KRSN)
Time Latitude Longitude Altitude Speed Heading
2026-05-07 02:19 32.45169 -93.82781 251 ft 0 kts 121°
2026-05-07 02:24 32.45151 -93.82764 250 ft 8 kts 172°
2026-05-07 02:25 32.45068 -93.82763 248 ft 14 kts 187°
2026-05-07 02:25 32.44977 -93.82790 248 ft 14 kts 194°
2026-05-07 02:25 32.44883 -93.82829 246 ft 15 kts 163°
2026-05-07 02:25 32.44794 -93.82759 244 ft 16 kts 139°
2026-05-07 02:26 32.44825 -93.82618 247 ft 35 kts 59°
2026-05-07 02:26 32.45051 -93.82140 243 ft 95 kts 58°
2026-05-07 02:26 32.45392 -93.81386 651 ft 100 kts 57°
2026-05-07 02:26 32.45728 -93.80612 1040 ft 118 kts 58°
2026-05-07 02:27 32.46101 -93.79735 1615 ft 118 kts 61°
2026-05-07 02:27 32.46464 -93.78837 2059 ft 130 kts 61°
2026-05-07 02:27 32.46862 -93.77880 2526 ft 134 kts 60°
2026-05-07 02:27 32.47305 -93.76874 2960 ft 141 kts 61°
2026-05-07 02:28 32.47738 -93.75806 3385 ft 148 kts 76°
2026-05-07 02:28 32.47836 -93.74569 3835 ft 154 kts 86°
2026-05-07 02:28 32.47884 -93.73284 4272 ft 159 kts 89°
2026-05-07 02:28 32.47925 -93.71950 4714 ft 165 kts 89°
2026-05-07 02:29 32.47970 -93.70585 5211 ft 167 kts 89°
2026-05-07 02:29 32.48017 -93.69187 5752 ft 170 kts 90°
2026-05-07 02:29 32.48066 -93.67778 6265 ft 175 kts 90°
2026-05-07 02:29 32.48115 -93.66333 6765 ft 178 kts 90°
2026-05-07 02:30 32.48165 -93.64852 7275 ft 180 kts 90°
2026-05-07 02:30 32.48215 -93.63364 7781 ft 183 kts 90°
2026-05-07 02:30 32.48266 -93.61834 8310 ft 186 kts 90°
2026-05-07 02:30 32.48318 -93.60300 8830 ft 189 kts 90°
2026-05-07 02:31 32.48368 -93.58652 9012 ft 216 kts 91°
2026-05-07 02:31 32.48417 -93.56767 9021 ft 243 kts 90°
2026-05-07 02:31 32.48481 -93.54677 9019 ft 261 kts 90°
2026-05-07 02:31 32.48555 -93.52501 9016 ft 272 kts 90°
2026-05-07 02:32 32.48631 -93.50240 9017 ft 279 kts 90°
2026-05-07 02:32 32.48707 -93.47913 9014 ft 283 kts 90°
2026-05-07 02:32 32.48782 -93.45564 9010 ft 286 kts 90°
2026-05-07 02:32 32.48860 -93.43210 9010 ft 287 kts 90°
2026-05-07 02:33 32.48936 -93.40856 9021 ft 288 kts 90°
2026-05-07 02:33 32.49012 -93.38478 9021 ft 289 kts 90°
2026-05-07 02:33 32.49088 -93.36093 9018 ft 289 kts 90°
2026-05-07 02:33 32.49163 -93.33733 9020 ft 289 kts 90°
2026-05-07 02:34 32.49238 -93.31344 9017 ft 289 kts 90°
2026-05-07 02:34 32.49312 -93.28961 9016 ft 289 kts 90°
2026-05-07 02:34 32.49386 -93.26585 9016 ft 290 kts 90°
2026-05-07 02:34 32.49435 -93.25002 9015 ft 289 kts 90°
2026-05-07 02:35 32.49508 -93.22619 9011 ft 290 kts 90°
2026-05-07 02:35 32.49580 -93.20231 9006 ft 290 kts 90°
2026-05-07 02:35 32.49654 -93.17843 9003 ft 290 kts 90°
2026-05-07 02:35 32.49726 -93.15456 8997 ft 290 kts 90°
2026-05-07 02:36 32.49798 -93.13069 8994 ft 290 kts 90°
2026-05-07 02:36 32.49868 -93.10682 8988 ft 290 kts 90°
2026-05-07 02:36 32.49939 -93.08298 8985 ft 290 kts 90°
2026-05-07 02:36 32.50009 -93.05904 8976 ft 290 kts 90°
2026-05-07 02:37 32.50078 -93.03546 8977 ft 290 kts 90°
2026-05-07 02:37 32.50147 -93.01156 8969 ft 290 kts 90°
2026-05-07 02:37 32.50216 -92.98767 8963 ft 290 kts 90°
2026-05-07 02:37 32.50285 -92.96376 8961 ft 290 kts 90°
2026-05-07 02:38 32.50351 -92.93971 8691 ft 299 kts 91°
2026-05-07 02:38 32.50406 -92.91449 8084 ft 312 kts 90°
2026-05-07 02:38 32.50476 -92.88873 7610 ft 310 kts 89°
2026-05-07 02:38 32.50525 -92.86344 7259 ft 303 kts 96°
2026-05-07 02:39 32.49915 -92.84034 6930 ft 290 kts 125°
2026-05-07 02:39 32.48642 -92.82242 6590 ft 282 kts 139°
2026-05-07 02:39 32.47404 -92.80444 6218 ft 284 kts 125°
2026-05-07 02:39 32.46443 -92.78411 5849 ft 282 kts 121°
2026-05-07 02:40 32.45513 -92.76385 5484 ft 279 kts 121°
2026-05-07 02:40 32.44585 -92.74384 5124 ft 276 kts 121°
2026-05-07 02:40 32.43567 -92.72482 4771 ft 272 kts 133°
2026-05-07 02:40 32.42230 -92.70935 4410 ft 267 kts 141°
2026-05-07 02:41 32.40841 -92.69506 4134 ft 262 kts 141°
2026-05-07 02:41 32.39473 -92.68111 3880 ft 257 kts 141°
2026-05-07 02:41 32.38137 -92.66763 3637 ft 254 kts 141°
2026-05-07 02:41 32.36769 -92.65407 3390 ft 252 kts 141°
2026-05-07 02:42 32.35437 -92.64109 3146 ft 249 kts 141°
2026-05-07 02:42 32.34307 -92.62593 2864 ft 246 kts 117°
2026-05-07 02:42 32.34008 -92.60653 2607 ft 241 kts 82°
2026-05-07 02:42 32.34709 -92.58893 2384 ft 239 kts 47°
2026-05-07 02:43 32.36123 -92.57933 2152 ft 238 kts 14°
2026-05-07 02:43 32.37741 -92.58054 2109 ft 233 kts 348°
2026-05-07 02:43 32.39288 -92.58552 2114 ft 227 kts 350°
2026-05-07 02:43 32.40822 -92.58827 2112 ft 210 kts 360°
2026-05-07 02:44 32.42160 -92.58856 1997 ft 179 kts
2026-05-07 02:44 32.43317 -92.58849 1797 ft 153 kts
2026-05-07 02:44 32.44295 -92.58847 1600 ft 129 kts
2026-05-07 02:44 32.45119 -92.58849 1453 ft 103 kts
2026-05-07 02:45 32.45740 -92.58855 1325 ft 84 kts
2026-05-07 02:45 32.46317 -92.58857 1210 ft 83 kts
2026-05-07 02:45 32.46890 -92.58854 1104 ft 85 kts
2026-05-07 02:45 32.47485 -92.58851 988 ft 86 kts
2026-05-07 02:46 32.48075 -92.58847 878 ft 85 kts
2026-05-07 02:46 32.48662 -92.58845 765 ft 83 kts
2026-05-07 02:46 32.49234 -92.58843 651 ft 82 kts
2026-05-07 02:46 32.49810 -92.58845 539 ft 84 kts 360°
2026-05-07 02:47 32.50396 -92.58846 427 ft 85 kts
2026-05-07 02:47 32.50971 -92.58844 323 ft 79 kts
2026-05-07 02:47 32.51427 -92.58844 300 ft 49 kts
2026-05-07 02:47 32.51613 -92.58856 297 ft 14 kts 318°
2026-05-07 02:48 32.51596 -92.58942 296 ft 13 kts 182°
2026-05-07 02:48 32.51465 -92.58943 300 ft 24 kts 180°
2026-05-07 02:48 32.51289 -92.58942 305 ft 25 kts 180°
2026-05-07 02:48 32.51119 -92.58943 310 ft 23 kts 178°
2026-05-07 02:49 32.51012 -92.59001 313 ft 17 kts 229°
2026-05-07 02:49 32.50990 -92.59076 314 ft 0 kts 270°